TimeEDT,TemperatureF,Dew PointF,Humidity,Sea Level PressureIn,VisibilityMPH,Wind Direction,Wind SpeedMPH,Gust SpeedMPH,PrecipitationIn,Events,Conditions,WindDirDegrees,DateUTC
12:51 AM,60.1,57.0,90,29.88,10.0,SW,3.5,-,N/A,,Overcast,220,2013-04-11 04:51:00
1:51 AM,60.1,57.0,90,29.90,7.0,West,4.6,-,N/A,,Overcast,280,2013-04-11 05:51:00
2:51 AM,59.0,57.0,93,29.88,7.0,NNW,4.6,-,0.01,Rain,Light Rain,330,2013-04-11 06:51:00
3:51 AM,57.9,57.0,97,29.85,3.0,SSE,4.6,-,0.00,,Overcast,160,2013-04-11 07:51:00
4:51 AM,57.0,55.0,93,29.83,4.0,SSE,3.5,-,N/A,,Mostly Cloudy,160,2013-04-11 08:51:00
5:51 AM,57.0,55.0,93,29.82,5.0,Calm,Calm,-,N/A,,Scattered Clouds,0,2013-04-11 09:51:00
6:51 AM,55.9,54.0,93,29.81,5.0,SE,3.5,-,N/A,,Overcast,140,2013-04-11 10:51:00
7:51 AM,57.9,55.0,90,29.84,7.0,South,5.8,-,N/A,,Overcast,190,2013-04-11 11:51:00
8:51 AM,61.0,55.9,83,29.84,10.0,SSE,3.5,-,N/A,,Overcast,150,2013-04-11 12:51:00
9:51 AM,64.0,57.0,78,29.83,10.0,SSE,3.5,-,N/A,,Overcast,160,2013-04-11 13:51:00
10:51 AM,68.0,55.9,65,29.84,10.0,SSW,4.6,-,N/A,,Overcast,200,2013-04-11 14:51:00
11:51 AM,69.1,55.0,61,29.84,10.0,West,11.5,17.3,N/A,,Overcast,260,2013-04-11 15:51:00
12:51 PM,71.1,57.0,61,29.82,10.0,WNW,10.4,-,N/A,,Overcast,300,2013-04-11 16:51:00
1:51 PM,71.1,55.0,57,29.81,10.0,West,3.5,-,N/A,,Overcast,260,2013-04-11 17:51:00
2:51 PM,72.0,55.0,55,29.77,10.0,South,6.9,-,N/A,,Overcast,170,2013-04-11 18:51:00
3:51 PM,73.0,54.0,51,29.76,10.0,WSW,6.9,-,N/A,,Overcast,240,2013-04-11 19:51:00
4:51 PM,73.0,54.0,51,29.73,10.0,West,3.5,-,N/A,,Overcast,280,2013-04-11 20:51:00
5:51 PM,73.0,55.0,53,29.72,10.0,SSE,3.5,-,N/A,,Overcast,150,2013-04-11 21:51:00
6:51 PM,69.1,57.0,65,29.70,10.0,North,6.9,-,N/A,,Overcast,360,2013-04-11 22:51:00
7:51 PM,66.9,57.0,70,29.69,10.0,North,11.5,-,N/A,,Overcast,10,2013-04-11 23:51:00
8:51 PM,63.0,53.1,70,29.68,10.0,ENE,9.2,-,N/A,,Overcast,60,2013-04-12 00:51:00
9:51 PM,60.1,51.1,72,29.65,10.0,ENE,8.1,-,N/A,,Overcast,60,2013-04-12 01:51:00
10:51 PM,57.0,48.9,74,29.62,10.0,ENE,9.2,-,N/A,,Overcast,70,2013-04-12 02:51:00
11:51 PM,55.9,48.9,77,29.61,7.0,East,11.5,-,N/A,,Overcast,90,2013-04-12 03:51:00